Regional Weather Roundup
Issued by NWS Green Bay, WI

Home | Current Version | Previous Version | Text Only | Print | Product List | Glossary On
Versions: 1 2 3 4 5 6 7 8 9 10 11 12 13 14 15 16 17 18 19 20 21 22 23 24 25 26 27 28 29 30 31 32 33 34 35 36 37 38 39 40 41 42 43 44 45 46 47 48 49 50
000
ASUS43 KGRB 131359
RWRGRB

NORTH-CENTRAL AND NORTHEAST WISCONSIN REGIONAL WEATHER ROUNDUP
NATIONAL WEATHER SERVICE GREEN BAY WI
900 AM CDT SUN JUL 13 2014

WIZ005-009-010>012-018-019-131500-
NORTH CENTRAL WISCONSIN

CITY           SKY/WX    TMP DP  RH WIND       PRES   REMARKS
IRONWOOD       SUNNY     59  46  63 W8        29.89R
MANITOWISH WTR NOT AVBL
ARBOR VITAE    NOT AVBL
EAGLE RIVER    NOT AVBL
LAND O LAKES   NOT AVBL
RHINELANDER    MOSUNNY   61  53  75 NW8       29.91R
PHILLIPS       NOT AVBL
ANTIGO         NOT AVBL
TOMAHAWK       NOT AVBL
MERRILL        NOT AVBL
$$

WIZ013-073-131500-
NORTHEAST WISCONSIN

CITY           SKY/WX    TMP DP  RH WIND       PRES   REMARKS
IRON MOUNTAIN  MOSUNNY   64  53  67 NW16G22   29.84S
MARINETTE      MOSUNNY   68  63  83 NW6       29.82S
$$

WIZ017-030-035>037-045-131500-
CENTRAL WISCONSIN

CITY           SKY/WX    TMP DP  RH WIND       PRES   REMARKS
MEDFORD        NOT AVBL
WAUSAU         MOSUNNY   67  58  72 NW13      29.89R
MOSINEE        PTSUNNY   66  63  88 NW9       29.92R
MARSHFIELD     MOSUNNY   67  61  81 NW10      29.92R
WISC RAPIDS    CLOUDY    67  64  90 W8        29.92R
STEVENS POINT  NOT AVBL
WAUPACA        NOT AVBL
SHAWANO        NOT AVBL
CLINTONVILLE   NOT AVBL
$$

WIZ038-039-048-051-131500-
FOX VALLEY

CITY           SKY/WX    TMP DP  RH WIND       PRES   REMARKS
NWS GREEN BAY  PTSUNNY   70  63  78 W15G23    29.87S
APPLETON       MOSUNNY   70  63  78 W12G18    29.89S
OSHKOSH        MOSUNNY   69  64  84 W7        29.89S
FOND DU LAC    MOSUNNY   68  63  84 SW8       29.91R
$$

WIZ022-050-052-131500-
EAST CENTRAL WISCONSIN

CITY           SKY/WX    TMP DP  RH WIND       PRES   REMARKS
STURGEON BAY   MOSUNNY   66  61  82 W16       29.85S
MANITOWOC      NOT AVBL
SHEBOYGAN      SUNNY     70  63  78 W14       29.89S
$$

LMZ563-521-522-541>543-131500-
LAKESHORE

STATION/POSITION TIME  TEMP    WIND        PRES    VSBY  WAVE
                       AIR SEA DIR/SP/G                  HT/PER
                 (UTC) (F)     (DEG/KT/KT) (MB)    (MI)  (FT/S)
SHEBOYGAN LKSHOR 1300   69     270/ 11/ 13 1011.7R
KEWAUNEE LKSHORE 1300   68     280/ 11/ 16 1011.6R
NORTHPORT PIER   1300   67     280/  7/ 11 1009.8S
N MID LAKE BUOY  1300   62 58  250/ 12/ 14 1008.5R         1/ 3
MENOMINEE LKSHOR 1300   68     260/  9/ 12 1010.6S
$$


USA.gov is the U.S. government's official web portal to all federal, state and local government web resources and services.